Regional Weather Roundup
Issued by NWS

Home | Current Version | Previous Version | Graphics & Text | Print | Product List | Glossary Off
Versions: 1 2 3 4 5 6 7 8 9 10 11 12 13 14 15 16 17 18 19 20 21 22 23 24 25 26 27 28 29 30 31 32 33 34 35 36 37 38 39 40 41 42 43 44 45 46 47 48 49 50

000
ASUS43 KFSD 041602
RWRSD

WEATHER ROUNDUP FOR SOUTH DAKOTA
NATIONAL WEATHER SERVICE SIOUX FALLS SD
1100 AM CDT TUE AUG 04 2015

NOTE: "FAIR" INDICATES FEW OR NO CLOUDS BELOW 12,000 FEET WITH NO
SIGNIFICANT WEATHER AND/OR OBSTRUCTIONS TO VISIBILITY.


SDZ001>005-009-010-012>017-041700-
NORTHWEST AND NORTH CENTRAL SOUTH DAKOTA

CITY           SKY/WX    TMP DP  RH WIND       PRES   REMARKS
FAITH            N/A     76  58  53 SE14      29.97F
MOBRIDGE       MOSUNNY   79  63  57 SE7       29.95F
$$

SDZ012>016-024>037-041>051-057-063-072>074-041700-
SOUTHWEST AND SOUTH CENTRAL SOUTH DAKOTA

CITY           SKY/WX    TMP DP  RH WIND       PRES   REMARKS
RAPID CTY ARPT CLOUDY    69  62  78 S9        29.98S
PIERRE         PTSUNNY   74  62  66 E9        29.95S
CUSTER         CLOUDY    63  57  81 S7        30.09R
ELLSWORTH AFB  CLOUDY    70  63  78 S13       29.97S
PHILIP         PTSUNNY   72  63  73 E9        29.95S
PINE RIDGE     PTSUNNY   73  59  61 S22G35    29.95F
WINNER         FAIR      72  62  71 E5        29.96R
$$

SDZ004>011-016>023-039-040-041700-
NORTHEAST SOUTH DAKOTA

CITY           SKY/WX    TMP DP  RH WIND       PRES   REMARKS
ABERDEEN       MOSUNNY   75  58  55 SE7       29.98F
WATERTOWN      PTSUNNY   73  55  53 S9        30.01F
BROOKINGS      CLOUDY    70  55  60 SE10      30.03F
$$

SDZ017-020-022-023-036>040-048>070-041700-
SOUTHEAST SOUTH DAKOTA

CITY           SKY/WX    TMP DP  RH WIND       PRES   REMARKS
SIOUX FALLS    CLOUDY    73  61  65 SE9       30.00F
HURON          PTSUNNY   74  65  73 E7        29.95F
CHAMBERLAIN    CLOUDY    68  64  88 S7        29.98R
MITCHELL       CLOUDY    73  65  75 E12       29.95F
YANKTON        CLOUDY    70  64  83 SE10      29.96F
$$

ABBREVIATIONS USED IN REMARKS
   TC - TEMPERATURE IN CELSIUS
  WCI - WIND CHILL INDEX
   HX - HEAT INDEX
  VSB - VISIBILITY



USA.gov is the U.S. government's official web portal to all federal, state and local government web resources and services.